TimeEST,TemperatureF,Dew PointF,Humidity,Sea Level PressureIn,VisibilityMPH,Wind Direction,Wind SpeedMPH,Gust SpeedMPH,PrecipitationIn,Events,Conditions,WindDirDegrees,DateUTC
12:53 AM,37.9,36.0,93,29.68,10.0,Calm,Calm,-,N/A,,Mostly Cloudy,0,2013-02-12 05:53:00
1:53 AM,39.0,33.1,79,29.70,10.0,Calm,Calm,-,N/A,,Overcast,0,2013-02-12 06:53:00
2:53 AM,39.0,33.1,79,29.71,10.0,West,3.5,-,N/A,,Overcast,260,2013-02-12 07:53:00
3:53 AM,37.9,32.0,79,29.70,10.0,Calm,Calm,-,N/A,,Overcast,0,2013-02-12 08:53:00
4:53 AM,37.0,30.9,79,29.72,10.0,WSW,3.5,-,N/A,,Mostly Cloudy,250,2013-02-12 09:53:00
5:53 AM,37.9,30.9,76,29.73,10.0,WSW,4.6,-,N/A,,Overcast,250,2013-02-12 10:53:00
6:53 AM,37.9,30.9,76,29.73,10.0,West,4.6,-,N/A,,Overcast,270,2013-02-12 11:53:00
7:53 AM,39.0,30.9,73,29.75,10.0,WSW,5.8,-,N/A,,Overcast,240,2013-02-12 12:53:00
8:53 AM,41.0,28.0,60,29.78,10.0,West,5.8,-,N/A,,Overcast,260,2013-02-12 13:53:00
9:53 AM,43.0,27.0,53,29.78,10.0,West,10.4,16.1,N/A,,Mostly Cloudy,280,2013-02-12 14:53:00
10:53 AM,43.0,27.0,53,29.79,10.0,West,12.7,16.1,N/A,,Overcast,280,2013-02-12 15:53:00
11:53 AM,43.0,26.1,51,29.79,10.0,WNW,9.2,-,N/A,,Overcast,290,2013-02-12 16:53:00
12:53 PM,44.1,25.0,47,29.79,10.0,WNW,12.7,-,N/A,,Mostly Cloudy,300,2013-02-12 17:53:00
1:53 PM,45.0,25.0,46,29.80,10.0,WNW,11.5,19.6,N/A,,Overcast,290,2013-02-12 18:53:00
2:53 PM,44.1,25.0,47,29.82,10.0,WNW,6.9,-,N/A,,Overcast,300,2013-02-12 19:53:00
3:53 PM,43.0,26.1,51,29.81,10.0,WNW,11.5,-,N/A,,Overcast,300,2013-02-12 20:53:00
4:53 PM,41.0,26.1,55,29.82,10.0,NW,5.8,-,N/A,,Overcast,320,2013-02-12 21:53:00
5:53 PM,39.9,25.0,55,29.84,10.0,NNW,9.2,-,N/A,,Overcast,330,2013-02-12 22:53:00
6:53 PM,39.0,26.1,60,29.90,10.0,West,8.1,-,N/A,,Mostly Cloudy,270,2013-02-12 23:53:00
7:53 PM,39.0,26.1,60,29.91,10.0,Calm,Calm,-,N/A,,Overcast,0,2013-02-13 00:53:00
8:53 PM,37.9,26.1,62,29.91,10.0,Calm,Calm,-,N/A,,Overcast,0,2013-02-13 01:53:00
9:53 PM,37.0,25.0,62,29.89,10.0,West,4.6,-,N/A,,Overcast,280,2013-02-13 02:53:00
10:53 PM,37.0,25.0,62,29.88,10.0,NW,4.6,-,N/A,,Overcast,310,2013-02-13 03:53:00
11:53 PM,37.0,23.0,57,29.90,10.0,NNW,5.8,-,N/A,,Overcast,330,2013-02-13 04:53:00